 394327422.553,2015-06-30T23:25:00.225,14808,42501,"EV_TC_PKT_ACCEPTED       "
 394327489.585,2015-06-30T23:26:07.257,14809,42501,"EV_TC_PKT_ACCEPTED       "
 394327556.574,2015-06-30T23:27:14.246,14810,42501,"EV_TC_PKT_ACCEPTED       "
 394327623.590,2015-06-30T23:28:21.262,14811,42501,"EV_TC_PKT_ACCEPTED       "
 394327690.616,2015-06-30T23:29:28.288,14812,42501,"EV_TC_PKT_ACCEPTED       "
 394327757.641,2015-06-30T23:30:35.313,14813,42501,"EV_TC_PKT_ACCEPTED       "
 394327824.638,2015-06-30T23:31:42.310,14814,42501,"EV_TC_PKT_ACCEPTED       "
 394327891.655,2015-06-30T23:32:49.327,14815,42501,"EV_TC_PKT_ACCEPTED       "
 394327958.680,2015-06-30T23:33:56.352,14816,42501,"EV_TC_PKT_ACCEPTED       "
 394328025.701,2015-06-30T23:35:03.373,14817,42501,"EV_TC_PKT_ACCEPTED       "
 394328094.708,2015-06-30T23:36:12.380,14818,42501,"EV_TC_PKT_ACCEPTED       "
 394328161.734,2015-06-30T23:37:19.406,14819,42501,"EV_TC_PKT_ACCEPTED       "
 394328230.749,2015-06-30T23:38:28.421,14820,42501,"EV_TC_PKT_ACCEPTED       "
 394328299.752,2015-06-30T23:39:37.424,14821,42501,"EV_TC_PKT_ACCEPTED       "
 394328366.777,2015-06-30T23:40:44.449,14822,42501,"EV_TC_PKT_ACCEPTED       "
 394328433.803,2015-06-30T23:41:51.475,14823,42501,"EV_TC_PKT_ACCEPTED       "
 394328500.799,2015-06-30T23:42:58.471,14824,42501,"EV_TC_PKT_ACCEPTED       "
 394328516.794,2015-06-30T23:43:14.466,14825,42501,"EV_TC_PKT_ACCEPTED       "
 394328567.388,2015-06-30T23:44:05.060,14826,42501,"EV_TC_PKT_ACCEPTED       "
 394328634.413,2015-06-30T23:45:12.085,14827,42501,"EV_TC_PKT_ACCEPTED       "
 394328701.438,2015-06-30T23:46:19.110,14828,42501,"EV_TC_PKT_ACCEPTED       "
 394328768.529,2015-06-30T23:47:26.201,14829,42501,"EV_TC_PKT_ACCEPTED       "
 394328835.451,2015-06-30T23:48:33.123,14830,42501,"EV_TC_PKT_ACCEPTED       "
 394328902.476,2015-06-30T23:49:40.148,14831,42501,"EV_TC_PKT_ACCEPTED       "
 394328969.502,2015-06-30T23:50:47.174,14832,42501,"EV_TC_PKT_ACCEPTED       "
 394329036.499,2015-06-30T23:51:54.171,14833,42501,"EV_TC_PKT_ACCEPTED       "
 394329103.516,2015-06-30T23:53:01.188,14834,42501,"EV_TC_PKT_ACCEPTED       "
 394329170.541,2015-06-30T23:54:08.213,14835,42501,"EV_TC_PKT_ACCEPTED       "
 394329237.565,2015-06-30T23:55:15.237,14836,42501,"EV_TC_PKT_ACCEPTED       "
 394329304.563,2015-06-30T23:56:22.235,14837,42501,"EV_TC_PKT_ACCEPTED       "
 394329371.579,2015-06-30T23:57:29.251,14838,42501,"EV_TC_PKT_ACCEPTED       "
 394329438.604,2015-06-30T23:58:36.276,14839,42501,"EV_TC_PKT_ACCEPTED       "
 394329506.616,2015-06-30T23:59:44.288,14840,42501,"EV_TC_PKT_ACCEPTED       "
 394329576.622,2015-07-01T00:00:53.294,14841,42501,"EV_TC_PKT_ACCEPTED       "
 394329645.664,2015-07-01T00:02:02.336,14842,42501,"EV_TC_PKT_ACCEPTED       "
 394329712.660,2015-07-01T00:03:09.332,14843,42501,"EV_TC_PKT_ACCEPTED       "
 394329779.680,2015-07-01T00:04:16.352,14844,42501,"EV_TC_PKT_ACCEPTED       "
 394329846.710,2015-07-01T00:05:23.382,14845,42501,"EV_TC_PKT_ACCEPTED       "
 394329913.727,2015-07-01T00:06:30.399,14846,42501,"EV_TC_PKT_ACCEPTED       "
 394329980.724,2015-07-01T00:07:37.397,14847,42501,"EV_TC_PKT_ACCEPTED       "
 394330047.740,2015-07-01T00:08:44.413,14848,42501,"EV_TC_PKT_ACCEPTED       "
 394330114.765,2015-07-01T00:09:51.438,14849,42501,"EV_TC_PKT_ACCEPTED       "
 394330181.791,2015-07-01T00:10:58.464,14850,42501,"EV_TC_PKT_ACCEPTED       "
 394330248.787,2015-07-01T00:12:05.460,14851,42501,"EV_TC_PKT_ACCEPTED       "
 394330315.804,2015-07-01T00:13:12.477,14852,42501,"EV_TC_PKT_ACCEPTED       "
 394330315.813,2015-07-01T00:13:12.486,14853,42501,"EV_TC_PKT_ACCEPTED       "
 394330382.409,2015-07-01T00:14:19.082,14854,42501,"EV_TC_PKT_ACCEPTED       "
 394330449.426,2015-07-01T00:15:26.099,14855,42501,"EV_TC_PKT_ACCEPTED       "
 394330516.422,2015-07-01T00:16:33.095,14856,42501,"EV_TC_PKT_ACCEPTED       "
 394330583.438,2015-07-01T00:17:40.111,14857,42501,"EV_TC_PKT_ACCEPTED       "
 394330650.472,2015-07-01T00:18:47.145,14858,42501,"EV_TC_PKT_ACCEPTED       "
 394330717.490,2015-07-01T00:19:54.163,14859,42501,"EV_TC_PKT_ACCEPTED       "
 394330784.486,2015-07-01T00:21:01.159,14860,42501,"EV_TC_PKT_ACCEPTED       "
 394330851.503,2015-07-01T00:22:08.176,14861,42501,"EV_TC_PKT_ACCEPTED       "
 394330918.528,2015-07-01T00:23:15.201,14862,42501,"EV_TC_PKT_ACCEPTED       "
 394330985.553,2015-07-01T00:24:22.226,14863,42501,"EV_TC_PKT_ACCEPTED       "
 394331052.550,2015-07-01T00:25:29.223,14864,42501,"EV_TC_PKT_ACCEPTED       "
 394331119.566,2015-07-01T00:26:36.239,14865,42501,"EV_TC_PKT_ACCEPTED       "
 394331186.591,2015-07-01T00:27:43.264,14866,42501,"EV_TC_PKT_ACCEPTED       "
 394331253.618,2015-07-01T00:28:50.291,14867,42501,"EV_TC_PKT_ACCEPTED       "
 394331321.720,2015-07-01T00:29:58.393,14868,42501,"EV_TC_PKT_ACCEPTED       "
 394331391.625,2015-07-01T00:31:08.298,14869,42501,"EV_TC_PKT_ACCEPTED       "
 394331460.647,2015-07-01T00:32:17.320,14870,42501,"EV_TC_PKT_ACCEPTED       "
 394331527.663,2015-07-01T00:33:24.336,14871,42501,"EV_TC_PKT_ACCEPTED       "
 394331593.789,2015-07-01T00:34:30.462,14872,42501,"EV_TC_PKT_ACCEPTED       "
 394331661.714,2015-07-01T00:35:38.387,14873,42501,"EV_TC_PKT_ACCEPTED       "
 394331728.711,2015-07-01T00:36:45.384,14874,42501,"EV_TC_PKT_ACCEPTED       "
 394331795.728,2015-07-01T00:37:52.401,14875,42501,"EV_TC_PKT_ACCEPTED       "
 394331862.752,2015-07-01T00:38:59.425,14876,42501,"EV_TC_PKT_ACCEPTED       "
 394331928.849,2015-07-01T00:40:05.522,14877,42501,"EV_TC_PKT_ACCEPTED       "
 394331996.775,2015-07-01T00:41:13.448,14878,42501,"EV_TC_PKT_ACCEPTED       "
 394332062.895,2015-07-01T00:42:19.568,14879,42501,"EV_TC_PKT_ACCEPTED       "
 394332116.794,2015-07-01T00:43:13.467,14880,42501,"EV_TC_PKT_ACCEPTED       "
 394332130.396,2015-07-01T00:43:27.069,14881,42501,"EV_TC_PKT_ACCEPTED       "
 394332197.412,2015-07-01T00:44:34.085,14882,42501,"EV_TC_PKT_ACCEPTED       "
 394332264.410,2015-07-01T00:45:41.083,14883,42501,"EV_TC_PKT_ACCEPTED       "
 394332331.426,2015-07-01T00:46:48.099,14884,42501,"EV_TC_PKT_ACCEPTED       "
 394332398.460,2015-07-01T00:47:55.133,14885,42501,"EV_TC_PKT_ACCEPTED       "
 394332465.477,2015-07-01T00:49:02.150,14886,42501,"EV_TC_PKT_ACCEPTED       "
 394332532.474,2015-07-01T00:50:09.147,14887,42501,"EV_TC_PKT_ACCEPTED       "
 394332599.489,2015-07-01T00:51:16.162,14888,42501,"EV_TC_PKT_ACCEPTED       "
 394332666.515,2015-07-01T00:52:23.188,14889,42501,"EV_TC_PKT_ACCEPTED       "
 394332733.541,2015-07-01T00:53:30.214,14890,42501,"EV_TC_PKT_ACCEPTED       "
 394332800.537,2015-07-01T00:54:37.210,14891,42501,"EV_TC_PKT_ACCEPTED       "
 394332867.647,2015-07-01T00:55:44.320,14892,42501,"EV_TC_PKT_ACCEPTED       "
 394332934.587,2015-07-01T00:56:51.260,14893,42501,"EV_TC_PKT_ACCEPTED       "
 394333001.604,2015-07-01T00:57:58.277,14894,42501,"EV_TC_PKT_ACCEPTED       "
 394333068.601,2015-07-01T00:59:05.275,14895,42501,"EV_TC_PKT_ACCEPTED       "
 394333135.617,2015-07-01T01:00:12.291,14896,42501,"EV_TC_PKT_ACCEPTED       "
 394333202.642,2015-07-01T01:01:19.316,14897,42501,"EV_TC_PKT_ACCEPTED       "
 394333269.669,2015-07-01T01:02:26.343,14898,42501,"EV_TC_PKT_ACCEPTED       "
 394333336.665,2015-07-01T01:03:33.339,14899,42501,"EV_TC_PKT_ACCEPTED       "
 394333403.681,2015-07-01T01:04:40.355,14900,42501,"EV_TC_PKT_ACCEPTED       "
 394333470.706,2015-07-01T01:05:47.380,14901,42501,"EV_TC_PKT_ACCEPTED       "
 394333537.732,2015-07-01T01:06:54.406,14902,42501,"EV_TC_PKT_ACCEPTED       "
 394333604.729,2015-07-01T01:08:01.403,14903,42501,"EV_TC_PKT_ACCEPTED       "
 394333671.745,2015-07-01T01:09:08.419,14904,42501,"EV_TC_PKT_ACCEPTED       "
 394333738.778,2015-07-01T01:10:15.452,14905,42501,"EV_TC_PKT_ACCEPTED       "
 394333805.795,2015-07-01T01:11:22.469,14906,42501,"EV_TC_PKT_ACCEPTED       "
 394333872.793,2015-07-01T01:12:29.467,14907,42501,"EV_TC_PKT_ACCEPTED       "
 394333916.794,2015-07-01T01:13:13.468,14908,42501,"EV_TC_PKT_ACCEPTED       "
 394333939.381,2015-07-01T01:13:36.055,14909,42501,"EV_TC_PKT_ACCEPTED       "
 394334006.501,2015-07-01T01:14:43.175,14910,42501,"EV_TC_PKT_ACCEPTED       "
 394334073.431,2015-07-01T01:15:50.105,14911,42501,"EV_TC_PKT_ACCEPTED       "
 394334139.522,2015-07-01T01:16:56.196,14912,42501,"EV_TC_PKT_ACCEPTED       "
 394334207.445,2015-07-01T01:18:04.119,14913,42501,"EV_TC_PKT_ACCEPTED       "
 394334273.571,2015-07-01T01:19:10.245,14914,42501,"EV_TC_PKT_ACCEPTED       "
 394334341.496,2015-07-01T01:20:18.170,14915,42501,"EV_TC_PKT_ACCEPTED       "
 394334408.492,2015-07-01T01:21:25.166,14916,42501,"EV_TC_PKT_ACCEPTED       "
 394334475.509,2015-07-01T01:22:32.183,14917,42501,"EV_TC_PKT_ACCEPTED       "
 394334542.534,2015-07-01T01:23:39.208,14918,42501,"EV_TC_PKT_ACCEPTED       "
 394334609.560,2015-07-01T01:24:46.234,14919,42501,"EV_TC_PKT_ACCEPTED       "
 394334676.556,2015-07-01T01:25:53.230,14920,42501,"EV_TC_PKT_ACCEPTED       "
 394334743.572,2015-07-01T01:27:00.246,14921,42501,"EV_TC_PKT_ACCEPTED       "
 394334810.597,2015-07-01T01:28:07.271,14922,42501,"EV_TC_PKT_ACCEPTED       "
 394334877.624,2015-07-01T01:29:14.298,14923,42501,"EV_TC_PKT_ACCEPTED       "
 394334944.620,2015-07-01T01:30:21.294,14924,42501,"EV_TC_PKT_ACCEPTED       "
 394335011.636,2015-07-01T01:31:28.310,14925,42501,"EV_TC_PKT_ACCEPTED       "
 394335078.661,2015-07-01T01:32:35.335,14926,42501,"EV_TC_PKT_ACCEPTED       "
 394335145.686,2015-07-01T01:33:42.360,14927,42501,"EV_TC_PKT_ACCEPTED       "
 394335212.684,2015-07-01T01:34:49.358,14928,42501,"EV_TC_PKT_ACCEPTED       "
 394335279.700,2015-07-01T01:35:56.374,14929,42501,"EV_TC_PKT_ACCEPTED       "
 394335346.725,2015-07-01T01:37:03.399,14930,42501,"EV_TC_PKT_ACCEPTED       "
 394335412.828,2015-07-01T01:38:09.502,14931,42501,"EV_TC_PKT_ACCEPTED       "
 394335480.747,2015-07-01T01:39:17.421,14932,42501,"EV_TC_PKT_ACCEPTED       "
 394335547.857,2015-07-01T01:40:24.531,14933,42501,"EV_TC_PKT_ACCEPTED       "
 394335613.890,2015-07-01T01:41:30.564,14934,42501,"EV_TC_PKT_ACCEPTED       "
 394335681.815,2015-07-01T01:42:38.489,14935,42501,"EV_TC_PKT_ACCEPTED       "
 394335716.794,2015-07-01T01:43:13.468,14936,42501,"EV_TC_PKT_ACCEPTED       "
 394335748.382,2015-07-01T01:43:45.056,14937,42501,"EV_TC_PKT_ACCEPTED       "
 394335815.398,2015-07-01T01:44:52.072,14938,42501,"EV_TC_PKT_ACCEPTED       "
 394335882.432,2015-07-01T01:45:59.106,14939,42501,"EV_TC_PKT_ACCEPTED       "
 394335949.450,2015-07-01T01:47:06.125,14940,42501,"EV_TC_PKT_ACCEPTED       "
 394336017.461,2015-07-01T01:48:14.136,14941,42501,"EV_TC_PKT_ACCEPTED       "
 394336084.462,2015-07-01T01:49:21.137,14942,42501,"EV_TC_PKT_ACCEPTED       "
 394336151.479,2015-07-01T01:50:28.154,14943,42501,"EV_TC_PKT_ACCEPTED       "
 394336218.504,2015-07-01T01:51:35.179,14944,42501,"EV_TC_PKT_ACCEPTED       "
 394336285.529,2015-07-01T01:52:42.204,14945,42501,"EV_TC_PKT_ACCEPTED       "
 394336352.616,2015-07-01T01:53:49.291,14946,42501,"EV_TC_PKT_ACCEPTED       "
 394336419.543,2015-07-01T01:54:56.218,14947,42501,"EV_TC_PKT_ACCEPTED       "
 394336486.568,2015-07-01T01:56:03.243,14948,42501,"EV_TC_PKT_ACCEPTED       "
 394336553.593,2015-07-01T01:57:10.268,14949,42501,"EV_TC_PKT_ACCEPTED       "
 394336620.590,2015-07-01T01:58:17.265,14950,42501,"EV_TC_PKT_ACCEPTED       "
 394336687.607,2015-07-01T01:59:24.282,14951,42501,"EV_TC_PKT_ACCEPTED       "
 394336754.632,2015-07-01T02:00:31.307,14952,42501,"EV_TC_PKT_ACCEPTED       "
 394336821.657,2015-07-01T02:01:38.332,14953,42501,"EV_TC_PKT_ACCEPTED       "
 394336888.654,2015-07-01T02:02:45.329,14954,42501,"EV_TC_PKT_ACCEPTED       "
 394336955.670,2015-07-01T02:03:52.345,14955,42501,"EV_TC_PKT_ACCEPTED       "
 394337022.704,2015-07-01T02:04:59.379,14956,42501,"EV_TC_PKT_ACCEPTED       "
 394337089.720,2015-07-01T02:06:06.395,14957,42501,"EV_TC_PKT_ACCEPTED       "
 394337156.718,2015-07-01T02:07:13.393,14958,42501,"EV_TC_PKT_ACCEPTED       "
 394337223.734,2015-07-01T02:08:20.409,14959,42501,"EV_TC_PKT_ACCEPTED       "
 394337290.759,2015-07-01T02:09:27.434,14960,42501,"EV_TC_PKT_ACCEPTED       "
 394337357.785,2015-07-01T02:10:34.460,14961,42501,"EV_TC_PKT_ACCEPTED       "
 394337424.781,2015-07-01T02:11:41.456,14962,42501,"EV_TC_PKT_ACCEPTED       "
 394337491.891,2015-07-01T02:12:48.566,14963,42501,"EV_TC_PKT_ACCEPTED       "
 394337516.794,2015-07-01T02:13:13.469,14964,42501,"EV_TC_PKT_ACCEPTED       "
 394337558.394,2015-07-01T02:13:55.069,14965,42501,"EV_TC_PKT_ACCEPTED       "
 394337625.419,2015-07-01T02:15:02.094,14966,42501,"EV_TC_PKT_ACCEPTED       "
 394337692.510,2015-07-01T02:16:09.185,14967,42501,"EV_TC_PKT_ACCEPTED       "
 394337759.432,2015-07-01T02:17:16.107,14968,42501,"EV_TC_PKT_ACCEPTED       "
 394337826.553,2015-07-01T02:18:23.228,14969,42501,"EV_TC_PKT_ACCEPTED       "
 394337893.483,2015-07-01T02:19:30.158,14970,42501,"EV_TC_PKT_ACCEPTED       "
 394337960.480,2015-07-01T02:20:37.155,14971,42501,"EV_TC_PKT_ACCEPTED       "
 394338027.496,2015-07-01T02:21:44.171,14972,42501,"EV_TC_PKT_ACCEPTED       "
 394338094.521,2015-07-01T02:22:51.196,14973,42501,"EV_TC_PKT_ACCEPTED       "
 394338161.547,2015-07-01T02:23:58.222,14974,42501,"EV_TC_PKT_ACCEPTED       "
 394338228.544,2015-07-01T02:25:05.219,14975,42501,"EV_TC_PKT_ACCEPTED       "
 394338295.560,2015-07-01T02:26:12.235,14976,42501,"EV_TC_PKT_ACCEPTED       "
 394338362.585,2015-07-01T02:27:19.260,14977,42501,"EV_TC_PKT_ACCEPTED       "
 394338429.611,2015-07-01T02:28:26.286,14978,42501,"EV_TC_PKT_ACCEPTED       "
 394338496.607,2015-07-01T02:29:33.282,14979,42501,"EV_TC_PKT_ACCEPTED       "
 394338563.624,2015-07-01T02:30:40.299,14980,42501,"EV_TC_PKT_ACCEPTED       "
 394338630.649,2015-07-01T02:31:47.324,14981,42501,"EV_TC_PKT_ACCEPTED       "
 394338697.674,2015-07-01T02:32:54.349,14982,42501,"EV_TC_PKT_ACCEPTED       "
 394338764.671,2015-07-01T02:34:01.346,14983,42501,"EV_TC_PKT_ACCEPTED       "
 394338831.687,2015-07-01T02:35:08.362,14984,42501,"EV_TC_PKT_ACCEPTED       "
 394338898.721,2015-07-01T02:36:15.396,14985,42501,"EV_TC_PKT_ACCEPTED       "
 394338965.739,2015-07-01T02:37:22.414,14986,42501,"EV_TC_PKT_ACCEPTED       "
 394339032.735,2015-07-01T02:38:29.411,14987,42501,"EV_TC_PKT_ACCEPTED       "
 394339099.751,2015-07-01T02:39:36.427,14988,42501,"EV_TC_PKT_ACCEPTED       "
 394339166.776,2015-07-01T02:40:43.452,14989,42501,"EV_TC_PKT_ACCEPTED       "
 394339233.802,2015-07-01T02:41:50.478,14990,42501,"EV_TC_PKT_ACCEPTED       "
 394339300.799,2015-07-01T02:42:57.475,14991,42501,"EV_TC_PKT_ACCEPTED       "
 394339316.793,2015-07-01T02:43:13.469,14992,42501,"EV_TC_PKT_ACCEPTED       "
 394339367.481,2015-07-01T02:44:04.157,14993,42501,"EV_TC_PKT_ACCEPTED       "
 394339434.421,2015-07-01T02:45:11.097,14994,42501,"EV_TC_PKT_ACCEPTED       "
 394339501.439,2015-07-01T02:46:18.115,14995,42501,"EV_TC_PKT_ACCEPTED       "
 394339568.435,2015-07-01T02:47:25.111,14996,42501,"EV_TC_PKT_ACCEPTED       "
 394339635.451,2015-07-01T02:48:32.127,14997,42501,"EV_TC_PKT_ACCEPTED       "
 394339702.485,2015-07-01T02:49:39.161,14998,42501,"EV_TC_PKT_ACCEPTED       "
 394339769.501,2015-07-01T02:50:46.177,14999,42501,"EV_TC_PKT_ACCEPTED       "
 394339836.499,2015-07-01T02:51:53.175,15000,42501,"EV_TC_PKT_ACCEPTED       "
 394339903.514,2015-07-01T02:53:00.190,15001,42501,"EV_TC_PKT_ACCEPTED       "
 394339970.540,2015-07-01T02:54:07.216,15002,42501,"EV_TC_PKT_ACCEPTED       "
 394340037.566,2015-07-01T02:55:14.242,15003,42501,"EV_TC_PKT_ACCEPTED       "
 394340104.562,2015-07-01T02:56:21.238,15004,42501,"EV_TC_PKT_ACCEPTED       "
 394340171.578,2015-07-01T02:57:28.254,15005,42501,"EV_TC_PKT_ACCEPTED       "
 394340238.604,2015-07-01T02:58:35.280,15006,42501,"EV_TC_PKT_ACCEPTED       "
 394340305.630,2015-07-01T02:59:42.306,15007,42501,"EV_TC_PKT_ACCEPTED       "
 394340372.626,2015-07-01T03:00:49.302,15008,42501,"EV_TC_PKT_ACCEPTED       "
 394340439.642,2015-07-01T03:01:56.318,15009,42501,"EV_TC_PKT_ACCEPTED       "
 394340506.676,2015-07-01T03:03:03.352,15010,42501,"EV_TC_PKT_ACCEPTED       "
 394340573.694,2015-07-01T03:04:10.370,15011,42501,"EV_TC_PKT_ACCEPTED       "
 394340640.690,2015-07-01T03:05:17.366,15012,42501,"EV_TC_PKT_ACCEPTED       "
 394340707.706,2015-07-01T03:06:24.382,15013,42501,"EV_TC_PKT_ACCEPTED       "
 394340774.731,2015-07-01T03:07:31.407,15014,42501,"EV_TC_PKT_ACCEPTED       "
 394340841.756,2015-07-01T03:08:38.432,15015,42501,"EV_TC_PKT_ACCEPTED       "
 394340908.754,2015-07-01T03:09:45.430,15016,42501,"EV_TC_PKT_ACCEPTED       "
 394340974.874,2015-07-01T03:10:51.550,15017,42501,"EV_TC_PKT_ACCEPTED       "
 394341042.795,2015-07-01T03:11:59.471,15018,42501,"EV_TC_PKT_ACCEPTED       "
 394341109.821,2015-07-01T03:13:06.497,15019,42501,"EV_TC_PKT_ACCEPTED       "
 394341116.794,2015-07-01T03:13:13.470,15020,42501,"EV_TC_PKT_ACCEPTED       "
 394341176.388,2015-07-01T03:14:13.064,15021,42501,"EV_TC_PKT_ACCEPTED       "
 394341243.404,2015-07-01T03:15:20.080,15022,42501,"EV_TC_PKT_ACCEPTED       "
 394341310.439,2015-07-01T03:16:27.115,15023,42501,"EV_TC_PKT_ACCEPTED       "
 394341377.456,2015-07-01T03:17:34.132,15024,42501,"EV_TC_PKT_ACCEPTED       "
 394341444.452,2015-07-01T03:18:41.128,15025,42501,"EV_TC_PKT_ACCEPTED       "
 394341511.468,2015-07-01T03:19:48.144,15026,42501,"EV_TC_PKT_ACCEPTED       "
 394341578.494,2015-07-01T03:20:55.170,15027,42501,"EV_TC_PKT_ACCEPTED       "
 394341645.520,2015-07-01T03:22:02.196,15028,42501,"EV_TC_PKT_ACCEPTED       "
 394341712.516,2015-07-01T03:23:09.192,15029,42501,"EV_TC_PKT_ACCEPTED       "
 394341779.532,2015-07-01T03:24:16.208,15030,42501,"EV_TC_PKT_ACCEPTED       "
 394341846.557,2015-07-01T03:25:23.233,15031,42501,"EV_TC_PKT_ACCEPTED       "
 394341913.583,2015-07-01T03:26:30.259,15032,42501,"EV_TC_PKT_ACCEPTED       "
 394341980.580,2015-07-01T03:27:37.256,15033,42501,"EV_TC_PKT_ACCEPTED       "
 394342047.596,2015-07-01T03:28:44.273,15034,42501,"EV_TC_PKT_ACCEPTED       "
 394342114.622,2015-07-01T03:29:51.299,15035,42501,"EV_TC_PKT_ACCEPTED       "
 394342182.633,2015-07-01T03:30:59.310,15036,42501,"EV_TC_PKT_ACCEPTED       "
 394342251.644,2015-07-01T03:32:08.321,15037,42501,"EV_TC_PKT_ACCEPTED       "
 394342318.670,2015-07-01T03:33:15.347,15038,42501,"EV_TC_PKT_ACCEPTED       "
 394342385.695,2015-07-01T03:34:22.372,15039,42501,"EV_TC_PKT_ACCEPTED       "
 394342452.692,2015-07-01T03:35:29.369,15040,42501,"EV_TC_PKT_ACCEPTED       "
 394342519.708,2015-07-01T03:36:36.385,15041,42501,"EV_TC_PKT_ACCEPTED       "
 394342586.733,2015-07-01T03:37:43.410,15042,42501,"EV_TC_PKT_ACCEPTED       "
 394342653.760,2015-07-01T03:38:50.437,15043,42501,"EV_TC_PKT_ACCEPTED       "
 394342720.756,2015-07-01T03:39:57.433,15044,42501,"EV_TC_PKT_ACCEPTED       "
 394342787.772,2015-07-01T03:41:04.449,15045,42501,"EV_TC_PKT_ACCEPTED       "
 394342854.797,2015-07-01T03:42:11.474,15046,42501,"EV_TC_PKT_ACCEPTED       "
 394342915.885,2015-07-01T03:43:12.562,15047,42501,"EV_TC_PKT_ACCEPTED       "
 394342921.822,2015-07-01T03:43:18.499,15048,42501,"EV_TC_PKT_ACCEPTED       "
 394342990.402,2015-07-01T03:44:27.079,15049,42501,"EV_TC_PKT_ACCEPTED       "
 394343057.427,2015-07-01T03:45:34.104,15050,42501,"EV_TC_PKT_ACCEPTED       "
 394343124.424,2015-07-01T03:46:41.101,15051,42501,"EV_TC_PKT_ACCEPTED       "
 394343191.440,2015-07-01T03:47:48.117,15052,42501,"EV_TC_PKT_ACCEPTED       "
 394343258.465,2015-07-01T03:48:55.142,15053,42501,"EV_TC_PKT_ACCEPTED       "
 394343325.491,2015-07-01T03:50:02.168,15054,42501,"EV_TC_PKT_ACCEPTED       "
 394343392.488,2015-07-01T03:51:09.165,15055,42501,"EV_TC_PKT_ACCEPTED       "
 394343459.504,2015-07-01T03:52:16.181,15056,42501,"EV_TC_PKT_ACCEPTED       "
 394343526.530,2015-07-01T03:53:23.207,15057,42501,"EV_TC_PKT_ACCEPTED       "
 394343593.555,2015-07-01T03:54:30.232,15058,42501,"EV_TC_PKT_ACCEPTED       "
 394343624.535,2015-07-01T03:55:01.212,15059,42501,"EV_TC_PKT_ACCEPTED       "
 394343624.644,2015-07-01T03:55:01.321,15060,42552,"EV_SHUT_CLOS_STARTED     "
 394343638.356,2015-07-01T03:55:15.033,15061,42554,"EV_SHUT_CLOSED           "
 394343660.552,2015-07-01T03:55:37.229,15062,42501,"EV_TC_PKT_ACCEPTED       "
 394343727.568,2015-07-01T03:56:44.245,15063,42501,"EV_TC_PKT_ACCEPTED       "
 394343742.589,2015-07-01T03:56:59.266,15064,42501,"EV_TC_PKT_ACCEPTED       "
 394343794.593,2015-07-01T03:57:51.270,15065,42501,"EV_TC_PKT_ACCEPTED       "
 394343804.580,2015-07-01T03:58:01.257,15066,42501,"EV_TC_PKT_ACCEPTED       "
 394343861.619,2015-07-01T03:58:58.296,15067,42501,"EV_TC_PKT_ACCEPTED       "
 394343924.608,2015-07-01T04:00:01.285,15068,42501,"EV_TC_PKT_ACCEPTED       "
 394343924.616,2015-07-01T04:00:01.293,15069,42674,"EV_ABS_APPR_STARTED      "
 394343929.631,2015-07-01T04:00:06.308,15070,42501,"EV_TC_PKT_ACCEPTED       "
 394343941.839,2015-07-01T04:00:18.516,15071,42624,"EV_ABS_APP_POS_REACHED   "
 394343998.642,2015-07-01T04:01:15.319,15072,42501,"EV_TC_PKT_ACCEPTED       "
 394344065.668,2015-07-01T04:02:22.345,15073,42501,"EV_TC_PKT_ACCEPTED       "
 394344104.650,2015-07-01T04:03:01.327,15074,42501,"EV_TC_PKT_ACCEPTED       "
 394344104.658,2015-07-01T04:03:01.335,15075,42661,"EV_BACK_APP_STARTED      "
 394344121.796,2015-07-01T04:03:18.473,15076,42768,"EV_APP_LVDT_ON_MIN_POS   "
 394344132.754,2015-07-01T04:03:29.431,15077,42501,"EV_TC_PKT_ACCEPTED       "
 394344164.663,2015-07-01T04:04:01.340,15078,42501,"EV_TC_PKT_ACCEPTED       "
 394344164.669,2015-07-01T04:04:01.346,15079,42652,"EV_LIN_TO_ABS_STARTED    "
 394344195.213,2015-07-01T04:04:31.890,15080,42631,"EV_LIN_POS_REACHED       "
 394344199.680,2015-07-01T04:04:36.357,15081,42501,"EV_TC_PKT_ACCEPTED       "
 394344266.705,2015-07-01T04:05:43.382,15082,42501,"EV_TC_PKT_ACCEPTED       "
 394344333.732,2015-07-01T04:06:50.409,15083,42501,"EV_TC_PKT_ACCEPTED       "
 394344344.706,2015-07-01T04:07:01.383,15084,42501,"EV_TC_PKT_ACCEPTED       "
 394344346.461,2015-07-01T04:07:03.138,15085,42591,"EV_SEARCH_FOR_REF_PULSE  "
 394344362.788,2015-07-01T04:07:19.465,15086,42587,"EV_SAVING_TABLE          "
 394344363.014,2015-07-01T04:07:19.691,15087,42592,"EV_SEGMENT_FOUND         "
 394344400.728,2015-07-01T04:07:57.405,15088,42501,"EV_TC_PKT_ACCEPTED       "
 394344467.838,2015-07-01T04:09:04.515,15089,42501,"EV_TC_PKT_ACCEPTED       "
 394344522.774,2015-07-01T04:09:59.451,15090,42501,"EV_TC_PKT_ACCEPTED       "
 394344523.742,2015-07-01T04:10:00.419,15091,42641,"EV_F_SCAN_STARTED        "
 394344524.770,2015-07-01T04:10:01.447,15092,42642,"EV_F_SCAN_CYCLE_STARTED  "
 394344535.234,2015-07-01T04:10:11.911,15093,42501,"EV_TC_PKT_ACCEPTED       "
 394344542.532,2015-07-01T04:10:19.209,15094,42643,"EV_F_SCAN_CYCLE_FINSHED  "
 394344543.582,2015-07-01T04:10:20.259,15095,42642,"EV_F_SCAN_CYCLE_STARTED  "
 394344561.364,2015-07-01T04:10:38.041,15096,42643,"EV_F_SCAN_CYCLE_FINSHED  "
 394344562.414,2015-07-01T04:10:39.091,15097,42642,"EV_F_SCAN_CYCLE_STARTED  "
 394344580.199,2015-07-01T04:10:56.876,15098,42643,"EV_F_SCAN_CYCLE_FINSHED  "
 394344581.249,2015-07-01T04:10:57.926,15099,42642,"EV_F_SCAN_CYCLE_STARTED  "
 394344599.031,2015-07-01T04:11:15.708,15100,42643,"EV_F_SCAN_CYCLE_FINSHED  "
 394344600.081,2015-07-01T04:11:16.758,15101,42642,"EV_F_SCAN_CYCLE_STARTED  "
 394344602.167,2015-07-01T04:11:18.844,15102,42501,"EV_TC_PKT_ACCEPTED       "
 394344617.868,2015-07-01T04:11:34.545,15103,42643,"EV_F_SCAN_CYCLE_FINSHED  "
 394344618.918,2015-07-01T04:11:35.595,15104,42642,"EV_F_SCAN_CYCLE_STARTED  "
 394344636.700,2015-07-01T04:11:53.377,15105,42643,"EV_F_SCAN_CYCLE_FINSHED  "
 394344637.750,2015-07-01T04:11:54.427,15106,42642,"EV_F_SCAN_CYCLE_STARTED  "
 394344655.532,2015-07-01T04:12:12.209,15107,42643,"EV_F_SCAN_CYCLE_FINSHED  "